STARLINK-32833, 62873

Orbit data source: Space-Track

STARLINK-32833, 62873 is a payload satellite owned by SpaceX/Seattle (US) in LEO that was launched on Sat, 01 Feb 2025 UTC via an FALCON 9 launch vehicle from the Air Force Western Test Range (AFWTR). Payload-class satellites include a variety of spacecraft equipped with specific instruments for various scientific and technological missions. These include communications satellites like Starlink; space stations such as the ISS; scientific satellites like the Hubble; Earth observation satellites from companies like Planet Labs, Umbra, and HawkEye 360; GPS; miniature CubeSats for education and research; and military/defense satellites.

Loading next visibility...
Identifier
62873, 2025-022V
Orbit
LEO
Country
Flag of USUS
Related business
Manufacturer
SpaceX/Seattle
Mission
Operational Commercial Communications
Bus & Motor
STARLINK V2M, Unknown motor
Mass
730 kg wet, ~700 kg dry
Launch date (UTC)
2025-02-01 (1 year ago)
Launch vehicle
FALCON 9
Launch site
Air Force Western Test Range (AFWTR)
Object type
Payload
Rocket body
Debris
Shape & HBR
Box + 2 Pan, 17.7 m
Radar Cross Section
33.884 m², Large (>1 m²)

Expand to show TLE details & history
Last TLE update: 19 hours ago

TLE from 19 hours ago
0 STARLINK-32833
1 62873U 25022V   26036.37432599  .00029707  00000-0  10100-2 0  9995
2 62873  53.1567 279.6387 0000999  86.1196 273.9919 15.30236371 56951
Epoch: 2026-02-05T08:59Z
TLE epoch observation values (Epoch: 2026-02-05T08:59:01.765Z)
Latitude
-0.00002°
Longitude
9.35386°
Altitude
475.958 km
Speed
7.629 km/s
True Right ascension
18h 38m 33s
True Declination
0° 00' 00"
Sunlit
Object was in daylight at epoch
Visualization orbit readout
Latitude
Unknown
Longitude
Unknown
Altitude
Unknown
Speed
Unknown
Apparent Right ascension
Unknown
Apparent Declination
Unknown
Sunlit
N/A
Visualization observer readout
Local Sidereal Time
06:06:46
Azimuth
Unknown
Elevation
Unknown
Doppler factor
Unknown
Orbital elements
Apogee altitude
476.048 km
Perigee altitude
474.679 km
Semi-major axis
6,853.5 km
Eccentricity
0.0001
Inclination
53.1567°
RAAN
279.6387°
Arg. of periapsis
86.1196°
True anomaly
273.98048°
Mean anomaly
273.9919°
Eccentric anomaly
273.98619°
Mean motion
3.82538 °/min
Orbital period
94.11 mins
BSTAR
0.00101
Loading maneuver chart data...
Computing Atmospheric mass density...
Loading historical data...
Loading historical data...
Loading historical data...
Loading historical data...
Loading historical data...
Loading historical data...
Loading historical data...

Documentation

Showing up to 5 results
|